<?xml version="1.0" encoding="UTF-8" standalone="no" ?>
<gpx xmlns="http://www.topografix.com/GPX/1/1" xmlns:xsi="http://www.w3.org/2001/XMLSchema-instance" xsi:schemaLocation="http://www.topografix.com/GPX/1/1 http://www.topografix.com/GPX/1/1/gpx.xsd" version="1.1" creator="VisuGPX - https://www.visugpx.com">
  <metadata>
    <name>GITER Poitou Charentes : boucle 86</name>
    <desc><![CDATA[Partie en Vienne de la Boucle centrale
[url]http://cdte86.free.fr/spip.php?article137[/url]]]></desc>
  </metadata>
  <trk>
    <name><![CDATA[Trk006]]></name>
    <trkseg>
      <trkpt lat="46.20716" lon="0.16402">
        <ele>129</ele>
        <time>2007-05-01T13:35:12Z</time>
      </trkpt>
      <trkpt lat="46.20711" lon="0.16596">
        <ele>129</ele>
        <time>2007-05-01T13:35:12Z</time>
      </trkpt>
      <trkpt lat="46.20679" lon="0.16824">
        <ele>131</ele>
        <time>2007-05-01T13:35:12Z</time>
      </trkpt>
      <trkpt lat="46.20613" lon="0.16905">
        <ele>132</ele>
        <time>2007-05-01T13:35:12Z</time>
      </trkpt>
      <trkpt lat="46.20574" lon="0.17191">
        <ele>134</ele>
        <time>2007-05-01T13:35:12Z</time>
      </trkpt>
      <trkpt lat="46.2048" lon="0.17435">
        <ele>132</ele>
        <time>2007-05-01T13:35:12Z</time>
      </trkpt>
      <trkpt lat="46.20394" lon="0.17905">
        <ele>130</ele>
        <time>2007-05-01T13:35:12Z</time>
      </trkpt>
      <trkpt lat="46.20297" lon="0.18">
        <ele>131</ele>
        <time>2007-05-01T13:35:12Z</time>
      </trkpt>
      <trkpt lat="46.20278" lon="0.18201">
        <ele>136</ele>
        <time>2007-05-01T13:35:12Z</time>
      </trkpt>
      <trkpt lat="46.2023" lon="0.18255">
        <ele>137</ele>
        <time>2007-05-01T13:35:12Z</time>
      </trkpt>
      <trkpt lat="46.2023" lon="0.18495">
        <ele>142</ele>
        <time>2007-05-01T13:35:12Z</time>
      </trkpt>
      <trkpt lat="46.20195" lon="0.18775">
        <ele>143</ele>
        <time>2007-05-01T13:35:12Z</time>
      </trkpt>
      <trkpt lat="46.20143" lon="0.18926">
        <ele>143</ele>
        <time>2007-05-01T13:35:12Z</time>
      </trkpt>
      <trkpt lat="46.20157" lon="0.19185">
        <ele>143</ele>
        <time>2007-05-01T13:35:12Z</time>
      </trkpt>
      <trkpt lat="46.20127" lon="0.19458">
        <ele>141</ele>
        <time>2007-05-01T13:35:12Z</time>
      </trkpt>
      <trkpt lat="46.20111" lon="0.19569">
        <ele>140</ele>
        <time>2007-05-01T13:35:12Z</time>
      </trkpt>
      <trkpt lat="46.20283" lon="0.19666">
        <ele>136</ele>
        <time>2007-05-01T13:35:12Z</time>
      </trkpt>
      <trkpt lat="46.20427" lon="0.19647">
        <ele>135</ele>
        <time>2007-05-01T13:35:12Z</time>
      </trkpt>
      <trkpt lat="46.21061" lon="0.20089">
        <ele>134</ele>
        <time>2007-05-01T13:35:12Z</time>
      </trkpt>
      <trkpt lat="46.20992" lon="0.20228">
        <ele>134</ele>
        <time>2007-05-01T13:35:12Z</time>
      </trkpt>
      <trkpt lat="46.20986" lon="0.20423">
        <ele>133</ele>
        <time>2007-05-01T13:35:12Z</time>
      </trkpt>
      <trkpt lat="46.21327" lon="0.20597">
        <ele>133</ele>
        <time>2007-05-01T13:35:12Z</time>
      </trkpt>
      <trkpt lat="46.21548" lon="0.20634">
        <ele>132</ele>
        <time>2007-05-01T13:35:12Z</time>
      </trkpt>
      <trkpt lat="46.21692" lon="0.20628">
        <ele>132</ele>
        <time>2007-05-01T13:35:12Z</time>
      </trkpt>
      <trkpt lat="46.21768" lon="0.20347">
        <ele>135</ele>
        <time>2007-05-01T13:35:12Z</time>
      </trkpt>
      <trkpt lat="46.21876" lon="0.20368">
        <ele>135</ele>
        <time>2007-05-01T13:35:12Z</time>
      </trkpt>
      <trkpt lat="46.21891" lon="0.20206">
        <ele>138</ele>
        <time>2007-05-01T13:35:12Z</time>
      </trkpt>
      <trkpt lat="46.21885" lon="0.20115">
        <ele>140</ele>
        <time>2007-05-01T13:35:12Z</time>
      </trkpt>
      <trkpt lat="46.22451" lon="0.1936">
        <ele>141</ele>
        <time>2007-05-01T13:35:12Z</time>
      </trkpt>
      <trkpt lat="46.22719" lon="0.18993">
        <ele>141</ele>
        <time>2007-05-01T13:35:12Z</time>
      </trkpt>
      <trkpt lat="46.22862" lon="0.18696">
        <ele>130</ele>
        <time>2007-05-01T13:35:12Z</time>
      </trkpt>
      <trkpt lat="46.22911" lon="0.18674">
        <ele>130</ele>
        <time>2007-05-01T13:35:12Z</time>
      </trkpt>
      <trkpt lat="46.22954" lon="0.18575">
        <ele>125</ele>
        <time>2007-05-01T13:35:12Z</time>
      </trkpt>
      <trkpt lat="46.22957" lon="0.18517">
        <ele>124</ele>
        <time>2007-05-01T13:35:12Z</time>
      </trkpt>
      <trkpt lat="46.23238" lon="0.1813">
        <ele>140</ele>
        <time>2007-05-01T13:35:12Z</time>
      </trkpt>
      <trkpt lat="46.23492" lon="0.18223">
        <ele>143</ele>
        <time>2007-05-01T13:35:12Z</time>
      </trkpt>
      <trkpt lat="46.23706" lon="0.18364">
        <ele>143</ele>
        <time>2007-05-01T13:35:12Z</time>
      </trkpt>
      <trkpt lat="46.23743" lon="0.18188">
        <ele>142</ele>
        <time>2007-05-01T13:35:12Z</time>
      </trkpt>
      <trkpt lat="46.23812" lon="0.18003">
        <ele>140</ele>
        <time>2007-05-01T13:35:12Z</time>
      </trkpt>
      <trkpt lat="46.24037" lon="0.17573">
        <ele>135</ele>
        <time>2007-05-01T13:35:12Z</time>
      </trkpt>
      <trkpt lat="46.2419" lon="0.1734">
        <ele>130</ele>
        <time>2007-05-01T13:35:12Z</time>
      </trkpt>
      <trkpt lat="46.24344" lon="0.1736">
        <ele>134</ele>
        <time>2007-05-01T13:35:12Z</time>
      </trkpt>
      <trkpt lat="46.24605" lon="0.17628">
        <ele>143</ele>
        <time>2007-05-01T13:35:12Z</time>
      </trkpt>
      <trkpt lat="46.24703" lon="0.17799">
        <ele>142</ele>
        <time>2007-05-01T13:35:12Z</time>
      </trkpt>
      <trkpt lat="46.24666" lon="0.17982">
        <ele>141</ele>
        <time>2007-05-01T13:35:12Z</time>
      </trkpt>
      <trkpt lat="46.24667" lon="0.18028">
        <ele>139</ele>
        <time>2007-05-01T13:35:12Z</time>
      </trkpt>
      <trkpt lat="46.24536" lon="0.18254">
        <ele>142</ele>
        <time>2007-05-01T13:35:12Z</time>
      </trkpt>
      <trkpt lat="46.2461" lon="0.18328">
        <ele>134</ele>
        <time>2007-05-01T13:35:12Z</time>
      </trkpt>
      <trkpt lat="46.24611" lon="0.184">
        <ele>134</ele>
        <time>2007-05-01T13:35:12Z</time>
      </trkpt>
      <trkpt lat="46.24609" lon="0.18549">
        <ele>135</ele>
        <time>2007-05-01T13:35:12Z</time>
      </trkpt>
      <trkpt lat="46.24731" lon="0.18771">
        <ele>132</ele>
        <time>2007-05-01T13:35:12Z</time>
      </trkpt>
      <trkpt lat="46.24776" lon="0.18789">
        <ele>132</ele>
        <time>2007-05-01T13:35:12Z</time>
      </trkpt>
      <trkpt lat="46.24734" lon="0.18972">
        <ele>136</ele>
        <time>2007-05-01T13:35:12Z</time>
      </trkpt>
      <trkpt lat="46.2474" lon="0.19037">
        <ele>136</ele>
        <time>2007-05-01T13:35:12Z</time>
      </trkpt>
      <trkpt lat="46.24653" lon="0.19183">
        <ele>133</ele>
        <time>2007-05-01T13:35:12Z</time>
      </trkpt>
      <trkpt lat="46.24533" lon="0.19272">
        <ele>129</ele>
        <time>2007-05-01T13:35:12Z</time>
      </trkpt>
      <trkpt lat="46.24439" lon="0.19315">
        <ele>125</ele>
        <time>2007-05-01T13:35:12Z</time>
      </trkpt>
      <trkpt lat="46.24385" lon="0.19524">
        <ele>126</ele>
        <time>2007-05-01T13:35:12Z</time>
      </trkpt>
      <trkpt lat="46.24465" lon="0.19709">
        <ele>126</ele>
        <time>2007-05-01T13:35:12Z</time>
      </trkpt>
      <trkpt lat="46.24449" lon="0.19814">
        <ele>130</ele>
        <time>2007-05-01T13:35:12Z</time>
      </trkpt>
      <trkpt lat="46.24464" lon="0.19884">
        <ele>133</ele>
        <time>2007-05-01T13:35:12Z</time>
      </trkpt>
      <trkpt lat="46.24505" lon="0.19915">
        <ele>134</ele>
        <time>2007-05-01T13:35:12Z</time>
      </trkpt>
      <trkpt lat="46.24617" lon="0.19885">
        <ele>129</ele>
        <time>2007-05-01T13:35:12Z</time>
      </trkpt>
      <trkpt lat="46.2472" lon="0.19881">
        <ele>131</ele>
        <time>2007-05-01T13:35:12Z</time>
      </trkpt>
      <trkpt lat="46.24884" lon="0.19764">
        <ele>131</ele>
        <time>2007-05-01T13:35:12Z</time>
      </trkpt>
      <trkpt lat="46.24942" lon="0.19691">
        <ele>131</ele>
        <time>2007-05-01T13:35:12Z</time>
      </trkpt>
      <trkpt lat="46.24988" lon="0.19546">
        <ele>126</ele>
        <time>2007-05-01T13:35:12Z</time>
      </trkpt>
      <trkpt lat="46.25126" lon="0.1945">
        <ele>126</ele>
        <time>2007-05-01T13:35:12Z</time>
      </trkpt>
      <trkpt lat="46.25244" lon="0.19497">
        <ele>125</ele>
        <time>2007-05-01T13:35:12Z</time>
      </trkpt>
      <trkpt lat="46.25286" lon="0.19599">
        <ele>127</ele>
        <time>2007-05-01T13:35:12Z</time>
      </trkpt>
      <trkpt lat="46.2524" lon="0.19763">
        <ele>136</ele>
        <time>2007-05-01T13:35:12Z</time>
      </trkpt>
      <trkpt lat="46.25241" lon="0.19802">
        <ele>136</ele>
        <time>2007-05-01T13:35:12Z</time>
      </trkpt>
      <trkpt lat="46.25467" lon="0.19884">
        <ele>136</ele>
        <time>2007-05-01T13:35:12Z</time>
      </trkpt>
      <trkpt lat="46.25761" lon="0.19957">
        <ele>137</ele>
        <time>2007-05-01T13:35:12Z</time>
      </trkpt>
      <trkpt lat="46.25891" lon="0.19926">
        <ele>134</ele>
        <time>2007-05-01T13:35:12Z</time>
      </trkpt>
      <trkpt lat="46.26006" lon="0.19817">
        <ele>131</ele>
        <time>2007-05-01T13:35:12Z</time>
      </trkpt>
      <trkpt lat="46.26082" lon="0.19776">
        <ele>129</ele>
        <time>2007-05-01T13:35:12Z</time>
      </trkpt>
      <trkpt lat="46.26158" lon="0.19779">
        <ele>127</ele>
        <time>2007-05-01T13:35:12Z</time>
      </trkpt>
      <trkpt lat="46.26144" lon="0.19961">
        <ele>133</ele>
        <time>2007-05-01T13:35:12Z</time>
      </trkpt>
      <trkpt lat="46.26182" lon="0.20083">
        <ele>133</ele>
        <time>2007-05-01T13:35:12Z</time>
      </trkpt>
      <trkpt lat="46.26169" lon="0.20356">
        <ele>135</ele>
        <time>2007-05-01T13:35:12Z</time>
      </trkpt>
      <trkpt lat="46.26154" lon="0.20486">
        <ele>139</ele>
        <time>2007-05-01T13:35:12Z</time>
      </trkpt>
      <trkpt lat="46.26352" lon="0.20985">
        <ele>137</ele>
        <time>2007-05-01T13:35:12Z</time>
      </trkpt>
      <trkpt lat="46.26471" lon="0.20863">
        <ele>139</ele>
        <time>2007-05-01T13:35:12Z</time>
      </trkpt>
      <trkpt lat="46.26548" lon="0.20867">
        <ele>138</ele>
        <time>2007-05-01T13:35:12Z</time>
      </trkpt>
      <trkpt lat="46.26644" lon="0.20954">
        <ele>138</ele>
        <time>2007-05-01T13:35:12Z</time>
      </trkpt>
      <trkpt lat="46.26707" lon="0.20932">
        <ele>135</ele>
        <time>2007-05-01T13:35:12Z</time>
      </trkpt>
      <trkpt lat="46.26764" lon="0.20897">
        <ele>132</ele>
        <time>2007-05-01T13:35:12Z</time>
      </trkpt>
      <trkpt lat="46.26877" lon="0.20925">
        <ele>127</ele>
        <time>2007-05-01T13:35:12Z</time>
      </trkpt>
      <trkpt lat="46.26923" lon="0.2119">
        <ele>124</ele>
        <time>2007-05-01T13:35:12Z</time>
      </trkpt>
      <trkpt lat="46.26976" lon="0.21395">
        <ele>119</ele>
        <time>2007-05-01T13:35:12Z</time>
      </trkpt>
      <trkpt lat="46.27004" lon="0.21699">
        <ele>120</ele>
        <time>2007-05-01T13:35:12Z</time>
      </trkpt>
      <trkpt lat="46.27024" lon="0.21789">
        <ele>121</ele>
        <time>2007-05-01T13:35:12Z</time>
      </trkpt>
      <trkpt lat="46.27096" lon="0.21793">
        <ele>120</ele>
        <time>2007-05-01T13:35:12Z</time>
      </trkpt>
      <trkpt lat="46.2705" lon="0.21963">
        <ele>130</ele>
        <time>2007-05-01T13:35:12Z</time>
      </trkpt>
      <trkpt lat="46.27035" lon="0.22107">
        <ele>134</ele>
        <time>2007-05-01T13:35:12Z</time>
      </trkpt>
      <trkpt lat="46.27165" lon="0.22588">
        <ele>141</ele>
        <time>2007-05-01T13:35:12Z</time>
      </trkpt>
      <trkpt lat="46.2718" lon="0.22679">
        <ele>142</ele>
        <time>2007-05-01T13:35:12Z</time>
      </trkpt>
      <trkpt lat="46.27383" lon="0.22716">
        <ele>142</ele>
        <time>2007-05-01T13:35:12Z</time>
      </trkpt>
      <trkpt lat="46.27469" lon="0.22693">
        <ele>142</ele>
        <time>2007-05-01T13:35:12Z</time>
      </trkpt>
      <trkpt lat="46.27564" lon="0.22729">
        <ele>142</ele>
        <time>2007-05-01T13:35:12Z</time>
      </trkpt>
      <trkpt lat="46.27682" lon="0.22302">
        <ele>139</ele>
        <time>2007-05-01T13:35:12Z</time>
      </trkpt>
      <trkpt lat="46.27846" lon="0.22205">
        <ele>138</ele>
        <time>2007-05-01T13:35:12Z</time>
      </trkpt>
      <trkpt lat="46.27899" lon="0.22125">
        <ele>135</ele>
        <time>2007-05-01T13:35:12Z</time>
      </trkpt>
      <trkpt lat="46.27968" lon="0.222">
        <ele>134</ele>
        <time>2007-05-01T13:35:12Z</time>
      </trkpt>
      <trkpt lat="46.27939" lon="0.22344">
        <ele>140</ele>
        <time>2007-05-01T13:35:12Z</time>
      </trkpt>
      <trkpt lat="46.28008" lon="0.22413">
        <ele>139</ele>
        <time>2007-05-01T13:35:12Z</time>
      </trkpt>
      <trkpt lat="46.28074" lon="0.22358">
        <ele>136</ele>
        <time>2007-05-01T13:35:12Z</time>
      </trkpt>
      <trkpt lat="46.28131" lon="0.22499">
        <ele>137</ele>
        <time>2007-05-01T13:35:12Z</time>
      </trkpt>
      <trkpt lat="46.28176" lon="0.22523">
        <ele>136</ele>
        <time>2007-05-01T13:35:12Z</time>
      </trkpt>
      <trkpt lat="46.28213" lon="0.2258">
        <ele>137</ele>
        <time>2007-05-01T13:35:12Z</time>
      </trkpt>
      <trkpt lat="46.2821" lon="0.22613">
        <ele>138</ele>
        <time>2007-05-01T13:35:12Z</time>
      </trkpt>
      <trkpt lat="46.28264" lon="0.22617">
        <ele>135</ele>
        <time>2007-05-01T13:35:12Z</time>
      </trkpt>
      <trkpt lat="46.28377" lon="0.22652">
        <ele>139</ele>
        <time>2007-05-01T13:35:12Z</time>
      </trkpt>
      <trkpt lat="46.28493" lon="0.22602">
        <ele>139</ele>
        <time>2007-05-01T13:35:12Z</time>
      </trkpt>
      <trkpt lat="46.28634" lon="0.22453">
        <ele>139</ele>
        <time>2007-05-01T13:35:12Z</time>
      </trkpt>
      <trkpt lat="46.28708" lon="0.22321">
        <ele>138</ele>
        <time>2007-05-01T13:35:12Z</time>
      </trkpt>
      <trkpt lat="46.28866" lon="0.22328">
        <ele>139</ele>
        <time>2007-05-01T13:35:12Z</time>
      </trkpt>
      <trkpt lat="46.29029" lon="0.22166">
        <ele>126</ele>
        <time>2007-05-01T13:35:12Z</time>
      </trkpt>
      <trkpt lat="46.29032" lon="0.22055">
        <ele>114</ele>
        <time>2007-05-01T13:35:12Z</time>
      </trkpt>
      <trkpt lat="46.28989" lon="0.21927">
        <ele>112</ele>
        <time>2007-05-01T13:35:12Z</time>
      </trkpt>
      <trkpt lat="46.29" lon="0.2181">
        <ele>109</ele>
        <time>2007-05-01T13:35:12Z</time>
      </trkpt>
      <trkpt lat="46.29114" lon="0.2187">
        <ele>117</ele>
        <time>2007-05-01T13:35:12Z</time>
      </trkpt>
      <trkpt lat="46.2917" lon="0.21777">
        <ele>127</ele>
        <time>2007-05-01T13:35:12Z</time>
      </trkpt>
      <trkpt lat="46.29426" lon="0.21942">
        <ele>123</ele>
        <time>2007-05-01T13:35:12Z</time>
      </trkpt>
      <trkpt lat="46.29505" lon="0.21881">
        <ele>113</ele>
        <time>2007-05-01T13:35:12Z</time>
      </trkpt>
      <trkpt lat="46.29583" lon="0.21962">
        <ele>107</ele>
        <time>2007-05-01T13:35:12Z</time>
      </trkpt>
      <trkpt lat="46.29687" lon="0.21991">
        <ele>113</ele>
        <time>2007-05-01T13:35:12Z</time>
      </trkpt>
      <trkpt lat="46.29843" lon="0.22127">
        <ele>122</ele>
        <time>2007-05-01T13:35:12Z</time>
      </trkpt>
      <trkpt lat="46.29948" lon="0.22182">
        <ele>126</ele>
        <time>2007-05-01T13:35:12Z</time>
      </trkpt>
      <trkpt lat="46.30057" lon="0.22236">
        <ele>124</ele>
        <time>2007-05-01T13:35:12Z</time>
      </trkpt>
      <trkpt lat="46.302" lon="0.22432">
        <ele>126</ele>
        <time>2007-05-01T13:35:12Z</time>
      </trkpt>
      <trkpt lat="46.30229" lon="0.22541">
        <ele>131</ele>
        <time>2007-05-01T13:35:12Z</time>
      </trkpt>
      <trkpt lat="46.30261" lon="0.22559">
        <ele>130</ele>
        <time>2007-05-01T13:35:12Z</time>
      </trkpt>
      <trkpt lat="46.30282" lon="0.22753">
        <ele>139</ele>
        <time>2007-05-01T13:35:12Z</time>
      </trkpt>
      <trkpt lat="46.30674" lon="0.23024">
        <ele>137</ele>
        <time>2007-05-01T13:35:12Z</time>
      </trkpt>
      <trkpt lat="46.3083" lon="0.23186">
        <ele>134</ele>
        <time>2007-05-01T13:35:12Z</time>
      </trkpt>
      <trkpt lat="46.30878" lon="0.23074">
        <ele>132</ele>
        <time>2007-05-01T13:35:12Z</time>
      </trkpt>
      <trkpt lat="46.30956" lon="0.22688">
        <ele>122</ele>
        <time>2007-05-01T13:35:12Z</time>
      </trkpt>
      <trkpt lat="46.31114" lon="0.22734">
        <ele>126</ele>
        <time>2007-05-01T13:35:12Z</time>
      </trkpt>
      <trkpt lat="46.31223" lon="0.22775">
        <ele>117</ele>
        <time>2007-05-01T13:35:12Z</time>
      </trkpt>
      <trkpt lat="46.31199" lon="0.22945">
        <ele>119</ele>
        <time>2007-05-01T13:35:12Z</time>
      </trkpt>
      <trkpt lat="46.31258" lon="0.22969">
        <ele>113</ele>
        <time>2007-05-01T13:35:12Z</time>
      </trkpt>
      <trkpt lat="46.31311" lon="0.23168">
        <ele>107</ele>
        <time>2007-05-01T13:35:12Z</time>
      </trkpt>
      <trkpt lat="46.31378" lon="0.23354">
        <ele>116</ele>
        <time>2007-05-01T13:35:12Z</time>
      </trkpt>
      <trkpt lat="46.31551" lon="0.23444">
        <ele>117</ele>
        <time>2007-05-01T13:35:12Z</time>
      </trkpt>
      <trkpt lat="46.31706" lon="0.23575">
        <ele>127</ele>
        <time>2007-05-01T13:35:12Z</time>
      </trkpt>
      <trkpt lat="46.31782" lon="0.23572">
        <ele>126</ele>
        <time>2007-05-01T13:35:12Z</time>
      </trkpt>
      <trkpt lat="46.31825" lon="0.23707">
        <ele>129</ele>
        <time>2007-05-01T13:35:12Z</time>
      </trkpt>
      <trkpt lat="46.31857" lon="0.23738">
        <ele>129</ele>
        <time>2007-05-01T13:35:12Z</time>
      </trkpt>
      <trkpt lat="46.31669" lon="0.24472">
        <ele>136</ele>
        <time>2007-05-01T13:35:12Z</time>
      </trkpt>
      <trkpt lat="46.31902" lon="0.24457">
        <ele>132</ele>
        <time>2007-05-01T13:35:12Z</time>
      </trkpt>
      <trkpt lat="46.32147" lon="0.24324">
        <ele>138</ele>
        <time>2007-05-01T13:35:12Z</time>
      </trkpt>
      <trkpt lat="46.32168" lon="0.24479">
        <ele>139</ele>
        <time>2007-05-01T13:35:12Z</time>
      </trkpt>
      <trkpt lat="46.32134" lon="0.24565">
        <ele>137</ele>
        <time>2007-05-01T13:35:12Z</time>
      </trkpt>
      <trkpt lat="46.32116" lon="0.24813">
        <ele>136</ele>
        <time>2007-05-01T13:35:12Z</time>
      </trkpt>
      <trkpt lat="46.32221" lon="0.24925">
        <ele>136</ele>
        <time>2007-05-01T13:35:12Z</time>
      </trkpt>
      <trkpt lat="46.3256" lon="0.24971">
        <ele>140</ele>
        <time>2007-05-01T13:35:12Z</time>
      </trkpt>
      <trkpt lat="46.32878" lon="0.25173">
        <ele>148</ele>
        <time>2007-05-01T13:35:12Z</time>
      </trkpt>
      <trkpt lat="46.32681" lon="0.25421">
        <ele>143</ele>
        <time>2007-05-01T13:35:12Z</time>
      </trkpt>
      <trkpt lat="46.32638" lon="0.25578">
        <ele>144</ele>
        <time>2007-05-01T13:35:12Z</time>
      </trkpt>
      <trkpt lat="46.3252" lon="0.25726">
        <ele>144</ele>
        <time>2007-05-01T13:35:12Z</time>
      </trkpt>
      <trkpt lat="46.32443" lon="0.25963">
        <ele>131</ele>
        <time>2007-05-01T13:35:12Z</time>
      </trkpt>
      <trkpt lat="46.32355" lon="0.26297">
        <ele>107</ele>
        <time>2007-05-01T13:35:12Z</time>
      </trkpt>
      <trkpt lat="46.32307" lon="0.26377">
        <ele>103</ele>
        <time>2007-05-01T13:35:12Z</time>
      </trkpt>
      <trkpt lat="46.32265" lon="0.26586">
        <ele>106</ele>
        <time>2007-05-01T13:35:12Z</time>
      </trkpt>
      <trkpt lat="46.32207" lon="0.26608">
        <ele>110</ele>
        <time>2007-05-01T13:35:12Z</time>
      </trkpt>
      <trkpt lat="46.32094" lon="0.26567">
        <ele>117</ele>
        <time>2007-05-01T13:35:12Z</time>
      </trkpt>
      <trkpt lat="46.32027" lon="0.26589">
        <ele>120</ele>
        <time>2007-05-01T13:35:12Z</time>
      </trkpt>
      <trkpt lat="46.31944" lon="0.26495">
        <ele>127</ele>
        <time>2007-05-01T13:35:12Z</time>
      </trkpt>
      <trkpt lat="46.31769" lon="0.26261">
        <ele>136</ele>
        <time>2007-05-01T13:35:12Z</time>
      </trkpt>
      <trkpt lat="46.31781" lon="0.26196">
        <ele>135</ele>
        <time>2007-05-01T13:35:12Z</time>
      </trkpt>
      <trkpt lat="46.31752" lon="0.26099">
        <ele>135</ele>
        <time>2007-05-01T13:35:12Z</time>
      </trkpt>
      <trkpt lat="46.31685" lon="0.26095">
        <ele>135</ele>
        <time>2007-05-01T13:35:12Z</time>
      </trkpt>
      <trkpt lat="46.31659" lon="0.26168">
        <ele>136</ele>
        <time>2007-05-01T13:35:12Z</time>
      </trkpt>
      <trkpt lat="46.31628" lon="0.26156">
        <ele>136</ele>
        <time>2007-05-01T13:35:12Z</time>
      </trkpt>
      <trkpt lat="46.31611" lon="0.26248">
        <ele>137</ele>
        <time>2007-05-01T13:35:12Z</time>
      </trkpt>
      <trkpt lat="46.31644" lon="0.26324">
        <ele>136</ele>
        <time>2007-05-01T13:35:12Z</time>
      </trkpt>
      <trkpt lat="46.31642" lon="0.26448">
        <ele>136</ele>
        <time>2007-05-01T13:35:12Z</time>
      </trkpt>
      <trkpt lat="46.3163" lon="0.26526">
        <ele>136</ele>
        <time>2007-05-01T13:35:12Z</time>
      </trkpt>
      <trkpt lat="46.31649" lon="0.26603">
        <ele>136</ele>
        <time>2007-05-01T13:35:12Z</time>
      </trkpt>
      <trkpt lat="46.31686" lon="0.26901">
        <ele>137</ele>
        <time>2007-05-01T13:35:12Z</time>
      </trkpt>
      <trkpt lat="46.3176" lon="0.27242">
        <ele>140</ele>
        <time>2007-05-01T13:35:12Z</time>
      </trkpt>
      <trkpt lat="46.31717" lon="0.27367">
        <ele>140</ele>
        <time>2007-05-01T13:35:12Z</time>
      </trkpt>
      <trkpt lat="46.31654" lon="0.27603">
        <ele>136</ele>
        <time>2007-05-01T13:35:12Z</time>
      </trkpt>
      <trkpt lat="46.31561" lon="0.27691">
        <ele>138</ele>
        <time>2007-05-01T13:35:12Z</time>
      </trkpt>
      <trkpt lat="46.3147" lon="0.2763">
        <ele>140</ele>
        <time>2007-05-01T13:35:12Z</time>
      </trkpt>
      <trkpt lat="46.31396" lon="0.27776">
        <ele>135</ele>
        <time>2007-05-01T13:35:12Z</time>
      </trkpt>
      <trkpt lat="46.31282" lon="0.27695">
        <ele>136</ele>
        <time>2007-05-01T13:35:12Z</time>
      </trkpt>
      <trkpt lat="46.31082" lon="0.28099">
        <ele>116</ele>
        <time>2007-05-01T13:35:12Z</time>
      </trkpt>
      <trkpt lat="46.31224" lon="0.28198">
        <ele>104</ele>
        <time>2007-05-01T13:35:12Z</time>
      </trkpt>
      <trkpt lat="46.31143" lon="0.28441">
        <ele>108</ele>
        <time>2007-05-01T13:35:12Z</time>
      </trkpt>
      <trkpt lat="46.31175" lon="0.28732">
        <ele>110</ele>
        <time>2007-05-01T13:35:12Z</time>
      </trkpt>
      <trkpt lat="46.31301" lon="0.28994">
        <ele>109</ele>
        <time>2007-05-01T13:35:12Z</time>
      </trkpt>
      <trkpt lat="46.31227" lon="0.29126">
        <ele>118</ele>
        <time>2007-05-01T13:35:12Z</time>
      </trkpt>
      <trkpt lat="46.3121" lon="0.29172">
        <ele>115</ele>
        <time>2007-05-01T13:35:12Z</time>
      </trkpt>
      <trkpt lat="46.31065" lon="0.291">
        <ele>121</ele>
        <time>2007-05-01T13:35:12Z</time>
      </trkpt>
      <trkpt lat="46.30858" lon="0.29127">
        <ele>117</ele>
        <time>2007-05-01T13:35:12Z</time>
      </trkpt>
      <trkpt lat="46.30808" lon="0.29096">
        <ele>128</ele>
        <time>2007-05-01T13:35:12Z</time>
      </trkpt>
      <trkpt lat="46.30715" lon="0.29158">
        <ele>127</ele>
        <time>2007-05-01T13:35:12Z</time>
      </trkpt>
      <trkpt lat="46.30656" lon="0.29154">
        <ele>131</ele>
        <time>2007-05-01T13:35:12Z</time>
      </trkpt>
      <trkpt lat="46.30549" lon="0.29236">
        <ele>128</ele>
        <time>2007-05-01T13:35:12Z</time>
      </trkpt>
      <trkpt lat="46.30508" lon="0.2916">
        <ele>131</ele>
        <time>2007-05-01T13:35:12Z</time>
      </trkpt>
      <trkpt lat="46.30409" lon="0.2917">
        <ele>135</ele>
        <time>2007-05-01T13:35:12Z</time>
      </trkpt>
      <trkpt lat="46.30274" lon="0.29175">
        <ele>139</ele>
        <time>2007-05-01T13:35:12Z</time>
      </trkpt>
      <trkpt lat="46.30171" lon="0.29218">
        <ele>139</ele>
        <time>2007-05-01T13:35:12Z</time>
      </trkpt>
      <trkpt lat="46.30042" lon="0.29281">
        <ele>134</ele>
        <time>2007-05-01T13:35:12Z</time>
      </trkpt>
      <trkpt lat="46.29918" lon="0.29429">
        <ele>124</ele>
        <time>2007-05-01T13:35:12Z</time>
      </trkpt>
      <trkpt lat="46.2982" lon="0.29237">
        <ele>130</ele>
        <time>2007-05-01T13:35:12Z</time>
      </trkpt>
      <trkpt lat="46.29515" lon="0.29255">
        <ele>140</ele>
        <time>2007-05-01T13:35:12Z</time>
      </trkpt>
      <trkpt lat="46.2949" lon="0.29633">
        <ele>134</ele>
        <time>2007-05-01T13:35:12Z</time>
      </trkpt>
      <trkpt lat="46.29475" lon="0.2977">
        <ele>122</ele>
        <time>2007-05-01T13:35:12Z</time>
      </trkpt>
      <trkpt lat="46.29546" lon="0.29975">
        <ele>105</ele>
        <time>2007-05-01T13:35:12Z</time>
      </trkpt>
      <trkpt lat="46.29609" lon="0.30005">
        <ele>104</ele>
        <time>2007-05-01T13:35:12Z</time>
      </trkpt>
      <trkpt lat="46.29713" lon="0.30241">
        <ele>111</ele>
        <time>2007-05-01T13:35:12Z</time>
      </trkpt>
      <trkpt lat="46.29745" lon="0.30286">
        <ele>111</ele>
        <time>2007-05-01T13:35:12Z</time>
      </trkpt>
      <trkpt lat="46.29746" lon="0.30363">
        <ele>113</ele>
        <time>2007-05-01T13:35:12Z</time>
      </trkpt>
      <trkpt lat="46.29801" lon="0.30433">
        <ele>117</ele>
        <time>2007-05-01T13:35:12Z</time>
      </trkpt>
      <trkpt lat="46.29851" lon="0.30671">
        <ele>112</ele>
        <time>2007-05-01T13:35:12Z</time>
      </trkpt>
      <trkpt lat="46.29947" lon="0.30758">
        <ele>115</ele>
        <time>2007-05-01T13:35:12Z</time>
      </trkpt>
      <trkpt lat="46.30007" lon="0.30834">
        <ele>119</ele>
        <time>2007-05-01T13:35:12Z</time>
      </trkpt>
      <trkpt lat="46.30051" lon="0.30819">
        <ele>119</ele>
        <time>2007-05-01T13:35:12Z</time>
      </trkpt>
      <trkpt lat="46.3008" lon="0.30916">
        <ele>119</ele>
        <time>2007-05-01T13:35:12Z</time>
      </trkpt>
      <trkpt lat="46.30033" lon="0.31067">
        <ele>127</ele>
        <time>2007-05-01T13:35:12Z</time>
      </trkpt>
      <trkpt lat="46.29934" lon="0.31317">
        <ele>137</ele>
        <time>2007-05-01T13:35:12Z</time>
      </trkpt>
      <trkpt lat="46.29758" lon="0.31506">
        <ele>135</ele>
        <time>2007-05-01T13:35:12Z</time>
      </trkpt>
      <trkpt lat="46.29638" lon="0.32127">
        <ele>143</ele>
        <time>2007-05-01T13:35:12Z</time>
      </trkpt>
      <trkpt lat="46.29631" lon="0.32478">
        <ele>146</ele>
        <time>2007-05-01T13:35:12Z</time>
      </trkpt>
      <trkpt lat="46.29551" lon="0.32799">
        <ele>145</ele>
        <time>2007-05-01T13:35:12Z</time>
      </trkpt>
      <trkpt lat="46.29393" lon="0.32753">
        <ele>143</ele>
        <time>2007-05-01T13:35:12Z</time>
      </trkpt>
      <trkpt lat="46.29126" lon="0.32925">
        <ele>143</ele>
        <time>2007-05-01T13:35:12Z</time>
      </trkpt>
      <trkpt lat="46.2919" lon="0.33013">
        <ele>140</ele>
        <time>2007-05-01T13:35:12Z</time>
      </trkpt>
      <trkpt lat="46.29272" lon="0.33056">
        <ele>139</ele>
        <time>2007-05-01T13:35:12Z</time>
      </trkpt>
      <trkpt lat="46.2931" lon="0.33132">
        <ele>142</ele>
        <time>2007-05-01T13:35:12Z</time>
      </trkpt>
      <trkpt lat="46.29266" lon="0.33225">
        <ele>143</ele>
        <time>2007-05-01T13:35:12Z</time>
      </trkpt>
      <trkpt lat="46.29213" lon="0.33272">
        <ele>143</ele>
        <time>2007-05-01T13:35:12Z</time>
      </trkpt>
      <trkpt lat="46.29247" lon="0.33394">
        <ele>143</ele>
        <time>2007-05-01T13:35:12Z</time>
      </trkpt>
      <trkpt lat="46.29296" lon="0.33373">
        <ele>143</ele>
        <time>2007-05-01T13:35:12Z</time>
      </trkpt>
      <trkpt lat="46.29284" lon="0.3349">
        <ele>141</ele>
        <time>2007-05-01T13:35:12Z</time>
      </trkpt>
      <trkpt lat="46.29203" lon="0.3374">
        <ele>138</ele>
        <time>2007-05-01T13:35:12Z</time>
      </trkpt>
      <trkpt lat="46.29137" lon="0.33814">
        <ele>135</ele>
        <time>2007-05-01T13:35:12Z</time>
      </trkpt>
      <trkpt lat="46.29022" lon="0.33935">
        <ele>134</ele>
        <time>2007-05-01T13:35:12Z</time>
      </trkpt>
      <trkpt lat="46.28929" lon="0.33997">
        <ele>129</ele>
        <time>2007-05-01T13:35:12Z</time>
      </trkpt>
      <trkpt lat="46.28869" lon="0.34174">
        <ele>118</ele>
        <time>2007-05-01T13:35:12Z</time>
      </trkpt>
      <trkpt lat="46.28815" lon="0.34202">
        <ele>117</ele>
        <time>2007-05-01T13:35:12Z</time>
      </trkpt>
      <trkpt lat="46.28853" lon="0.34272">
        <ele>127</ele>
        <time>2007-05-01T13:35:12Z</time>
      </trkpt>
      <trkpt lat="46.28898" lon="0.34303">
        <ele>133</ele>
        <time>2007-05-01T13:35:12Z</time>
      </trkpt>
      <trkpt lat="46.2894" lon="0.34379">
        <ele>137</ele>
        <time>2007-05-01T13:35:12Z</time>
      </trkpt>
      <trkpt lat="46.29" lon="0.34435">
        <ele>139</ele>
        <time>2007-05-01T13:35:12Z</time>
      </trkpt>
      <trkpt lat="46.29072" lon="0.34699">
        <ele>144</ele>
        <time>2007-05-01T13:35:12Z</time>
      </trkpt>
      <trkpt lat="46.29357" lon="0.35071">
        <ele>145</ele>
        <time>2007-05-01T13:35:12Z</time>
      </trkpt>
      <trkpt lat="46.29349" lon="0.3513">
        <ele>144</ele>
        <time>2007-05-01T13:35:12Z</time>
      </trkpt>
      <trkpt lat="46.29355" lon="0.35182">
        <ele>142</ele>
        <time>2007-05-01T13:35:12Z</time>
      </trkpt>
      <trkpt lat="46.294" lon="0.35226">
        <ele>141</ele>
        <time>2007-05-01T13:35:12Z</time>
      </trkpt>
      <trkpt lat="46.29253" lon="0.35309">
        <ele>140</ele>
        <time>2007-05-01T13:35:12Z</time>
      </trkpt>
      <trkpt lat="46.29157" lon="0.35442">
        <ele>136</ele>
        <time>2007-05-01T13:35:12Z</time>
      </trkpt>
      <trkpt lat="46.29014" lon="0.35512">
        <ele>135</ele>
        <time>2007-05-01T13:35:12Z</time>
      </trkpt>
      <trkpt lat="46.28941" lon="0.35736">
        <ele>140</ele>
        <time>2007-05-01T13:35:12Z</time>
      </trkpt>
      <trkpt lat="46.28917" lon="0.35866">
        <ele>140</ele>
        <time>2007-05-01T13:35:12Z</time>
      </trkpt>
      <trkpt lat="46.28565" lon="0.35568">
        <ele>135</ele>
        <time>2007-05-01T13:35:12Z</time>
      </trkpt>
      <trkpt lat="46.28457" lon="0.35552">
        <ele>133</ele>
        <time>2007-05-01T13:35:12Z</time>
      </trkpt>
      <trkpt lat="46.28421" lon="0.35566">
        <ele>130</ele>
        <time>2007-05-01T13:35:12Z</time>
      </trkpt>
      <trkpt lat="46.28419" lon="0.35735">
        <ele>130</ele>
        <time>2007-05-01T13:35:12Z</time>
      </trkpt>
      <trkpt lat="46.28339" lon="0.35797">
        <ele>122</ele>
        <time>2007-05-01T13:35:12Z</time>
      </trkpt>
      <trkpt lat="46.28318" lon="0.35869">
        <ele>122</ele>
        <time>2007-05-01T13:35:12Z</time>
      </trkpt>
      <trkpt lat="46.2826" lon="0.35897">
        <ele>117</ele>
        <time>2007-05-01T13:35:12Z</time>
      </trkpt>
      <trkpt lat="46.28196" lon="0.35834">
        <ele>112</ele>
        <time>2007-05-01T13:35:12Z</time>
      </trkpt>
      <trkpt lat="46.2785" lon="0.35873">
        <ele>112</ele>
        <time>2007-05-01T13:35:12Z</time>
      </trkpt>
      <trkpt lat="46.27798" lon="0.35712">
        <ele>114</ele>
        <time>2007-05-01T13:35:12Z</time>
      </trkpt>
      <trkpt lat="46.27789" lon="0.35706">
        <ele>114</ele>
        <time>2007-05-01T13:35:12Z</time>
      </trkpt>
      <trkpt lat="46.27686" lon="0.35736">
        <ele>113</ele>
        <time>2007-05-01T13:35:12Z</time>
      </trkpt>
      <trkpt lat="46.27682" lon="0.35749">
        <ele>113</ele>
        <time>2007-05-01T13:35:12Z</time>
      </trkpt>
    </trkseg>
  </trk>
</gpx>